Voltar ao catálogo

STARLINK-30530

AtivoComunicaçõesVLEO
NORAD 58005·PAYLOAD·🇺🇸 United States

Lançado Oct 5, 2023 de Cape Canaveral Space Force Station

Loading…

Próximas Passagens (próximas 24 horas)

TLE

AtualizadoSource: CelesTrak SupGP

Época: Sep 14, 2026, 21:24 UTC

1 58005C 23153Q   26257.89215278  .00042518  00000+0  15398-2 0  2570
2 58005  43.0035  78.3856 0001713 273.8867 106.0869 15.27561857    13

Acompanhe STARLINK-30530 em tempo real com AllMySat

Download on the App Store